Regional Weather Roundup
Issued by NWS Jackson, KY

Home | Current Version | Previous Version | Text Only | Print | Product List | Glossary Off
Versions: 1 2 3 4 5 6 7 8 9 10 11 12 13 14 15 16 17 18 19 20 21 22 23 24 25 26 27 28 29 30 31 32 33 34 35 36 37 38 39 40 41 42 43 44 45 46 47 48 49 50

000
ASUS43 KJKL 031210
RWRJKL

EAST KENTUCKY HOURLY WEATHER ROUNDUP
NATIONAL WEATHER SERVICE JACKSON KY
800 AM EDT FRI JUL 03 2015

NOTE: "FAIR" INDICATES FEW OR NO CLOUDS BELOW 12,000 FEET WITH
NO SIGNIFICANT WEATHER AND/OR OBSTRUCTIONS TO VISIBILITY.

* THESE REPORTS ARE NOT UNDER NWS QUALITY CONTROL AND MAY NOT
  REPORT WEATHER SUCH AS PRECIPITATION AND FOG.

KYZ079-080-083-085-087-088-110-112-115-119-120-031300
...EASTERN KENTUCKY...

CITY           SKY/WX    TMP DP  RH WIND       PRES   REMARKS
JACKSON        CLOUDY    69  67  93 CALM      29.90F
6HR MIN TEMP:  67; 6HR MAX TEMP:  68; 6HR PCP:  0.13;

LONDON         LGT RAIN  70  65  84 CALM      29.89F
6HR MIN TEMP:  70; 6HR MAX TEMP:  71; 6HR PCP:  0.04;

SOMERSET*      CLOUDY    68  68 100 S3        29.89S
MONTICELLO*    CLOUDY    71  71 100 CALM      29.90S
6HR MIN TEMP:  70; 6HR MAX TEMP:  71;

MIDDLESBORO*   CLOUDY    69  69 100 CALM      29.92R
6HR MIN TEMP:  68; 6HR MAX TEMP:  71;

HARLAN APT*      N/A     68  68 100 SE3       29.92F
HAZARD APT*    CLOUDY    70  70 100 CALM      29.90S FOG
BLACK MTN*       N/A     63  63 100 SW6         N/A
PIKEVILLE APT* CLOUDY    66  66 100 CALM      29.92R FOG
BIG SANDY*     CLOUDY    69  68  99 CALM      29.91S
6HR MIN TEMP:  68; 6HR MAX TEMP:  69;

MOREHEAD APT*  CLOUDY    68  66  94 MISG      29.91S
$$

KYZ035-036-041-042-044-050-067-078-099-031300
...CENTRAL KENTUCKY...

CITY           SKY/WX    TMP DP  RH WIND       PRES   REMARKS
MT STERLING*   CLOUDY    68  68 100 E5        29.89F
FLEMING/MASON* CLOUDY    66  64  94 E6        29.90S FOG
DANVILLE*      CLOUDY    68  68 100 CALM      29.88F FOG
RICHMOND*      CLOUDY    70  68  94 CALM      29.87F
LEXINGTON      CLOUDY    70  68  93 E3        29.87F
6HR MIN TEMP:  70; 6HR MAX TEMP:  71; 6HR PCP:  0.04;

FRANKFORT      CLOUDY    70  67  90 NE3       29.86S
6HR MIN TEMP:  69; 6HR MAX TEMP:  70;

$$

KYZ091>093-OHZ055-061-077-WVZ005-015-034-035-042-031300
...SOUTHERN OHIO/WEST VIRGINIA...

CITY           SKY/WX    TMP DP  RH WIND       PRES   REMARKS
COVINGTON      CLOUDY    67  64  90 E9        29.90S FOG
COLUMBUS       PTSUNNY   63  56  78 E3        29.94S
DAYTON         CLOUDY    64  57  78 E5        29.95R
WILMINGTON     CLOUDY    63  58  83 NE7       29.92S
HUNTINGTON     CLOUDY    66  65  96 E5        29.90R FOG
CHARLESTON     CLOUDY    66  64  93 N3        29.91S FOG
PINEVILLE*     RAIN      66  66 100 MISG      30.01R
BECKLEY        CLOUDY    65  62  90 SE8       29.99R FOG
BLUEFIELD      RAIN      66  62  87 SE6       30.01S FOG
$$

VAZ002-007-008-TNZ017-027-036-066-071-031300
...SOUTHWEST VIRGINIA/EAST TENNESSEE...

CITY           SKY/WX    TMP DP  RH WIND       PRES   REMARKS
WISE*          CLOUDY    68  68 100 CALM      30.00S
JONESVILLE*      N/A    N/A N/A N/A MISG        N/A
ABINGDON*      CLOUDY    69  69 100 CALM      29.99R
BRISTOL        CLOUDY    69  67  93 S3        29.95F
KNOXVILLE      CLOUDY    70  67  90 CALM      29.90
OAK RIDGE      CLOUDY    71  68  90 CALM      29.92S
CROSSVILLE     CLOUDY    72  68  87 SW8       29.95R
NASHVILLE      PTSUNNY   72  71  97 SW7       29.88S
$$

...KEY TO REMARKS...
VSB - VISIBILITY IN MILES
WCI - WIND CHILL INDEX
HX  - HEAT INDEX

$$



USA.gov is the U.S. government's official web portal to all federal, state and local government web resources and services.